REU272 FMEE-FMCZ

Flight info

Callsign REU272
Flight time N/A
Altitude 38000
Route DOBUT2J DOBUT UB790 SOAVI
Aircraft B77W/H-SDE1E2E3FGHIJ2J3J4J5M1RWXY/LB1D1

Departure

Time 2026-04-18 08:08
Airport Roland Garros Airport (FMEE)

Arrival

Time N/A
Airport Dzaoudzi Pamandzi International Airport (FMCZ)
Time Latitude Longitude Altitude Speed Heading
2026-04-18 07:25 -20.89010 55.51115 142 ft 0 kts 205°
2026-04-18 08:00 -20.89003 55.51118 141 ft 2 kts 197°
2026-04-18 08:00 -20.88988 55.51121 140 ft 2 kts 182°
2026-04-18 08:00 -20.88974 55.51121 139 ft 2 kts 173°
2026-04-18 08:01 -20.88959 55.51118 138 ft 2 kts 161°
2026-04-18 08:01 -20.88945 55.51112 137 ft 2 kts 150°
2026-04-18 08:01 -20.88933 55.51103 136 ft 2 kts 139°
2026-04-18 08:01 -20.88922 55.51092 136 ft 2 kts 128°
2026-04-18 08:02 -20.88914 55.51079 135 ft 2 kts 117°
2026-04-18 08:02 -20.88910 55.51071 135 ft 0 kts 114°
2026-04-18 08:04 -20.88911 55.51073 135 ft 0 kts 114°
2026-04-18 08:04 -20.88912 55.51075 135 ft 1 kts 117°
2026-04-18 08:04 -20.88919 55.51088 135 ft 4 kts 118°
2026-04-18 08:04 -20.88941 55.51138 136 ft 6 kts 110°
2026-04-18 08:05 -20.88924 55.51179 134 ft 7 kts 16°
2026-04-18 08:05 -20.88856 55.51163 129 ft 12 kts 342°
2026-04-18 08:05 -20.88764 55.51127 122 ft 15 kts 325°
2026-04-18 08:05 -20.88710 55.51025 120 ft 15 kts 285°
2026-04-18 08:06 -20.88686 55.50911 119 ft 15 kts 282°
2026-04-18 08:06 -20.88663 55.50796 118 ft 16 kts 282°
2026-04-18 08:06 -20.88638 55.50675 119 ft 16 kts 282°
2026-04-18 08:06 -20.88611 55.50561 117 ft 16 kts 294°
2026-04-18 08:07 -20.88582 55.50509 114 ft 6 kts 286°
2026-04-18 08:07 -20.88594 55.50483 115 ft 2 kts 183°
2026-04-18 08:07 -20.88604 55.50495 115 ft 2 kts 102°
2026-04-18 08:07 -20.88607 55.50513 116 ft 8 kts 101°
2026-04-18 08:08 -20.88633 55.50639 119 ft 26 kts 102°
2026-04-18 08:08 -20.88725 55.51093 120 ft 102 kts 101°
2026-04-18 08:08 -20.88930 55.52101 217 ft 164 kts 103°
2026-04-18 08:08 -20.89217 55.53303 887 ft 177 kts 101°
2026-04-18 08:09 -20.89488 55.54591 1905 ft 182 kts 100°
2026-04-18 08:09 -20.89747 55.55882 2893 ft 182 kts 96°
2026-04-18 08:09 -20.89691 55.57250 3426 ft 196 kts 72°
2026-04-18 08:09 -20.89017 55.58573 3982 ft 212 kts 46°
2026-04-18 08:10 -20.87754 55.59449 4557 ft 229 kts 17°
2026-04-18 08:10 -20.86117 55.59524 5174 ft 248 kts 346°
2026-04-18 08:10 -20.84428 55.58879 5874 ft 265 kts 338°
2026-04-18 08:10 -20.82715 55.58118 6777 ft 273 kts 338°
2026-04-18 08:11 -20.80972 55.57335 7784 ft 276 kts 338°
2026-04-18 08:11 -20.79211 55.56543 8755 ft 280 kts 338°
2026-04-18 08:11 -20.77413 55.55735 9720 ft 284 kts 338°
2026-04-18 08:11 -20.75578 55.54934 10606 ft 291 kts 338°
2026-04-18 08:12 -20.73629 55.54091 11289 ft 307 kts 338°
2026-04-18 08:12 -20.71602 55.53211 11966 ft 322 kts 338°
2026-04-18 08:12 -20.69496 55.52295 12622 ft 338 kts 338°
2026-04-18 08:12 -20.67271 55.51326 13294 ft 352 kts 338°
2026-04-18 08:13 -20.64961 55.50321 13969 ft 366 kts 338°
2026-04-18 08:13 -20.62558 55.49276 14580 ft 381 kts 338°
2026-04-18 08:13 -20.60110 55.48077 15176 ft 395 kts 330°
2026-04-18 08:13 -20.57808 55.46398 15924 ft 404 kts 320°
2026-04-18 08:14 -20.55808 55.44285 16781 ft 410 kts 310°
2026-04-18 08:14 -20.54047 55.41867 17624 ft 415 kts 307°
2026-04-18 08:14 -20.52323 55.39410 18440 ft 420 kts 307°
2026-04-18 08:14 -20.50553 55.36886 19278 ft 425 kts 307°
2026-04-18 08:15 -20.48785 55.34369 20060 ft 430 kts 307°
2026-04-18 08:15 -20.46981 55.31801 20830 ft 436 kts 307°
2026-04-18 08:15 -20.45153 55.29200 21639 ft 440 kts 307°
2026-04-18 08:15 -20.43313 55.26585 22411 ft 445 kts 307°
2026-04-18 08:16 -20.41461 55.23956 23129 ft 450 kts 307°
2026-04-18 08:16 -20.39590 55.21300 23909 ft 453 kts 307°
2026-04-18 08:16 -20.37690 55.18603 24639 ft 457 kts 307°
2026-04-18 08:16 -20.35766 55.15875 25374 ft 462 kts 307°
2026-04-18 08:17 -20.33830 55.13132 26079 ft 466 kts 307°
2026-04-18 08:17 -20.31876 55.10364 26794 ft 470 kts 307°
2026-04-18 08:17 -20.29911 55.07583 27454 ft 475 kts 306°
2026-04-18 08:17 -20.27920 55.04765 28117 ft 479 kts 307°
2026-04-18 08:18 -20.25925 55.01942 28782 ft 483 kts 307°
2026-04-18 08:18 -20.23884 54.99058 29468 ft 486 kts 306°
2026-04-18 08:18 -20.21858 54.96196 30355 ft 485 kts 306°
2026-04-18 08:18 -20.19852 54.93362 31443 ft 478 kts 306°
2026-04-18 08:19 -20.17889 54.90592 32557 ft 469 kts 306°
2026-04-18 08:19 -20.15947 54.87853 33503 ft 463 kts 306°
2026-04-18 08:19 -20.14017 54.85131 34305 ft 460 kts 306°
2026-04-18 08:19 -20.12102 54.82431 34931 ft 460 kts 306°
2026-04-18 08:20 -20.10185 54.79730 35568 ft 459 kts 306°
2026-04-18 08:20 -20.08204 54.76939 36000 ft 461 kts 306°
2026-04-18 08:20 -20.06225 54.74153 36128 ft 468 kts 306°
2026-04-18 08:20 -20.04204 54.71310 36748 ft 465 kts 306°
2026-04-18 08:21 -20.02277 54.68601 37577 ft 458 kts 306°
2026-04-18 08:21 -20.00371 54.65921 37994 ft 458 kts 306°
2026-04-18 08:21 -19.98423 54.63184 38008 ft 459 kts 306°
2026-04-18 08:22 -19.94611 54.57832 38012 ft 456 kts 306°
2026-04-18 08:22 -19.90785 54.52464 38009 ft 455 kts 306°
2026-04-18 08:23 -19.86943 54.47080 38008 ft 456 kts 306°
2026-04-18 08:23 -19.83123 54.41730 38011 ft 456 kts 306°
2026-04-18 08:24 -19.79303 54.36386 38004 ft 455 kts 306°
2026-04-18 08:24 -19.75471 54.31029 38013 ft 456 kts 306°
2026-04-18 08:25 -19.71638 54.25677 38011 ft 454 kts 306°
2026-04-18 08:25 -19.67801 54.20324 38010 ft 456 kts 306°
2026-04-18 08:26 -19.63983 54.15001 38008 ft 453 kts 306°
2026-04-18 08:26 -19.60166 54.09684 38009 ft 454 kts 306°
2026-04-18 08:27 -19.56349 54.04373 38002 ft 455 kts 306°
2026-04-18 08:27 -19.52517 53.99033 37996 ft 454 kts 304°
2026-04-18 08:28 -19.49591 53.93143 38003 ft 453 kts 289°
2026-04-18 08:28 -19.47612 53.86824 37954 ft 446 kts 288°
2026-04-18 08:28 -19.46663 53.83756 37423 ft 442 kts 288°
2026-04-18 08:29 -19.45699 53.80651 36441 ft 447 kts 288°
2026-04-18 08:29 -19.44730 53.77535 36017 ft 443 kts 288°
2026-04-18 08:29 -19.43764 53.74436 36002 ft 451 kts 288°
2026-04-18 08:30 -19.41777 53.68072 35997 ft 456 kts 288°
2026-04-18 08:30 -19.39786 53.61708 35994 ft 454 kts 288°
2026-04-18 08:31 -19.37799 53.55370 35997 ft 456 kts 288°
2026-04-18 08:31 -19.35804 53.49015 35997 ft 455 kts 288°
2026-04-18 08:32 -19.33581 53.42770 35993 ft 455 kts 296°
2026-04-18 08:32 -19.30010 53.37236 35993 ft 458 kts 307°
2026-04-18 08:33 -19.26036 53.31967 35998 ft 457 kts 307°
2026-04-18 08:33 -19.22090 53.26747 35998 ft 457 kts 307°
2026-04-18 08:34 -19.18105 53.21479 35996 ft 456 kts 307°
2026-04-18 08:34 -19.14158 53.16267 35996 ft 457 kts 307°
2026-04-18 08:35 -19.10173 53.11008 35993 ft 457 kts 307°
2026-04-18 08:35 -19.06187 53.05752 35996 ft 459 kts 307°
2026-04-18 08:36 -19.02204 53.00507 35992 ft 458 kts 307°
2026-04-18 08:36 -18.98222 52.95267 35990 ft 457 kts 307°
2026-04-18 08:37 -18.94249 52.90041 35990 ft 458 kts 307°
2026-04-18 08:37 -18.90256 52.84796 35988 ft 458 kts 307°
2026-04-18 08:38 -18.86251 52.79538 35989 ft 458 kts 307°
2026-04-18 08:38 -18.82258 52.74301 35991 ft 459 kts 307°
2026-04-18 08:39 -18.78265 52.69068 35992 ft 458 kts 307°
2026-04-18 08:39 -18.74268 52.63834 35995 ft 457 kts 307°
2026-04-18 08:40 -18.70271 52.58604 35997 ft 458 kts 307°
2026-04-18 08:40 -18.66260 52.53360 36000 ft 458 kts 307°
2026-04-18 08:41 -18.62285 52.48169 36002 ft 458 kts 307°
2026-04-18 08:41 -18.58270 52.42929 36000 ft 458 kts 307°
2026-04-18 08:42 -18.54266 52.37708 36004 ft 459 kts 307°
2026-04-18 08:42 -18.50265 52.32494 36016 ft 459 kts 307°
2026-04-18 08:43 -18.46246 52.27263 36015 ft 459 kts 307°
2026-04-18 08:43 -18.42238 52.22049 36015 ft 459 kts 307°
2026-04-18 08:44 -18.38202 52.16803 36013 ft 459 kts 307°
2026-04-18 08:44 -18.34202 52.11609 36011 ft 460 kts 307°
2026-04-18 08:45 -18.30161 52.06366 36012 ft 461 kts 307°
2026-04-18 08:45 -18.26130 52.01139 36010 ft 460 kts 307°
2026-04-18 08:46 -18.22102 51.95921 36012 ft 461 kts 307°
2026-04-18 08:46 -18.18063 51.90693 36012 ft 461 kts 307°
2026-04-18 08:47 -18.14028 51.85474 36008 ft 459 kts 307°
2026-04-18 08:47 -18.10015 51.80288 36009 ft 461 kts 307°
2026-04-18 08:48 -18.05978 51.75076 36010 ft 459 kts 307°
2026-04-18 08:48 -18.01925 51.69846 36009 ft 461 kts 307°
2026-04-18 08:49 -17.97888 51.64642 35998 ft 461 kts 307°
2026-04-18 08:49 -17.93833 51.59419 35996 ft 461 kts 307°
2026-04-18 08:50 -17.89803 51.54231 35996 ft 461 kts 307°
2026-04-18 08:50 -17.85746 51.49013 35997 ft 460 kts 307°
2026-04-18 08:51 -17.81702 51.43816 35994 ft 459 kts 307°
2026-04-18 08:51 -17.77654 51.38619 35996 ft 460 kts 307°
2026-04-18 08:52 -17.73608 51.33427 36002 ft 459 kts 307°
2026-04-18 08:52 -17.69555 51.28232 36003 ft 459 kts 307°
2026-04-18 08:53 -17.65513 51.23053 36007 ft 460 kts 307°
2026-04-18 08:53 -17.61451 51.17854 36005 ft 458 kts 307°
2026-04-18 08:54 -17.57411 51.12687 36002 ft 459 kts 307°
2026-04-18 08:54 -17.53378 51.07532 36003 ft 459 kts 307°
2026-04-18 08:55 -17.49334 51.02368 36004 ft 461 kts 307°
2026-04-18 08:55 -17.45269 50.97181 36001 ft 460 kts 307°
2026-04-18 08:56 -17.41200 50.91994 36000 ft 460 kts 307°
2026-04-18 08:56 -17.37132 50.86814 36000 ft 459 kts 307°
2026-04-18 08:57 -17.31067 50.79097 36000 ft 459 kts 307°
2026-04-18 08:57 -17.27026 50.73961 35999 ft 459 kts 307°
2026-04-18 08:58 -17.22971 50.68811 35998 ft 459 kts 307°
2026-04-18 08:58 -17.18893 50.63636 35998 ft 460 kts 307°
2026-04-18 08:59 -17.14831 50.58483 35996 ft 460 kts 307°
2026-04-18 08:59 -17.10750 50.53312 35999 ft 460 kts 307°
2026-04-18 09:00 -17.06682 50.48161 35999 ft 461 kts 307°
2026-04-18 09:00 -17.02622 50.43024 35998 ft 459 kts 307°
2026-04-18 09:01 -16.98578 50.37912 35996 ft 458 kts 307°
2026-04-18 09:01 -16.94663 50.32649 35999 ft 457 kts 299°
2026-04-18 09:02 -16.92286 50.26556 36003 ft 456 kts 282°
2026-04-18 09:02 -16.91936 50.20011 35998 ft 455 kts 263°
2026-04-18 09:03 -16.93000 50.13519 36010 ft 456 kts 260°
2026-04-18 09:03 -16.94129 50.07042 36011 ft 454 kts 260°
2026-04-18 09:04 -16.95261 50.00540 36009 ft 455 kts 260°
2026-04-18 09:04 -16.96393 49.94033 36011 ft 455 kts 260°
2026-04-18 09:05 -16.96819 49.87448 36014 ft 455 kts 274°
2026-04-18 09:05 -16.95472 49.81022 36016 ft 458 kts 287°
2026-04-18 09:06 -16.93411 49.74768 36010 ft 457 kts 287°
2026-04-18 09:06 -16.91324 49.68466 36008 ft 459 kts 287°
2026-04-18 09:07 -16.89236 49.62168 36009 ft 459 kts 287°
2026-04-18 09:07 -16.87183 49.55987 35990 ft 437 kts 287°
2026-04-18 09:08 -16.86195 49.53019 35960 ft 422 kts 287°
2026-04-18 09:08 -16.85247 49.50170 35746 ft 411 kts 287°
2026-04-18 09:08 -16.84321 49.47384 35167 ft 410 kts 287°
2026-04-18 09:08 -16.83384 49.44568 34293 ft 415 kts 288°
2026-04-18 09:09 -16.82430 49.41701 33353 ft 420 kts 288°
2026-04-18 09:09 -16.81467 49.38808 32557 ft 423 kts 288°
2026-04-18 09:09 -16.80503 49.35914 31839 ft 424 kts 288°
2026-04-18 09:09 -16.79536 49.33015 31099 ft 426 kts 288°
2026-04-18 09:10 -16.78562 49.30095 30310 ft 429 kts 288°
2026-04-18 09:10 -16.77591 49.27184 29530 ft 432 kts 288°
2026-04-18 09:10 -16.76589 49.24182 29150 ft 443 kts 288°
2026-04-18 09:10 -16.75565 49.21114 29115 ft 460 kts 288°
2026-04-18 09:11 -16.74499 49.17925 29120 ft 474 kts 288°
2026-04-18 09:11 -16.73405 49.14652 29127 ft 474 kts 288°
2026-04-18 09:11 -16.71238 49.08180 29143 ft 473 kts 288°
2026-04-18 09:12 -16.69073 49.01725 29151 ft 471 kts 288°
2026-04-18 09:12 -16.67138 48.95206 29158 ft 472 kts 279°
2026-04-18 09:13 -16.66832 48.88422 29159 ft 470 kts 264°
2026-04-18 09:13 -16.68393 48.81831 29167 ft 472 kts 248°
2026-04-18 09:14 -16.71715 48.75946 29168 ft 474 kts 232°
2026-04-18 09:14 -16.76558 48.71264 29172 ft 479 kts 216°
2026-04-18 09:15 -16.82344 48.67775 29167 ft 479 kts 211°
2026-04-18 09:15 -16.88172 48.64415 29164 ft 480 kts 211°
2026-04-18 09:16 -16.94022 48.61040 29157 ft 478 kts 211°
2026-04-18 09:16 -16.99845 48.57678 29167 ft 480 kts 211°
2026-04-18 09:17 -17.05692 48.54300 29164 ft 481 kts 210°
2026-04-18 09:17 -17.11566 48.50904 29171 ft 480 kts 210°
2026-04-18 09:18 -17.17457 48.47495 29171 ft 480 kts 210°
2026-04-18 09:18 -17.23314 48.44104 29167 ft 479 kts 210°
2026-04-18 09:19 -17.29136 48.40731 29156 ft 479 kts 210°
2026-04-18 09:19 -17.34983 48.37340 29154 ft 480 kts 210°
2026-04-18 09:20 -17.40837 48.33944 29155 ft 480 kts 210°
2026-04-18 09:20 -17.46667 48.30558 29154 ft 481 kts 210°
2026-04-18 09:21 -17.52546 48.27142 29153 ft 481 kts 210°
2026-04-18 09:21 -17.58396 48.23739 29149 ft 481 kts 210°
2026-04-18 09:22 -17.64247 48.20334 29151 ft 480 kts 210°
2026-04-18 09:22 -17.70080 48.16937 29150 ft 481 kts 210°
2026-04-18 09:23 -17.75943 48.13520 29162 ft 480 kts 210°
2026-04-18 09:23 -17.81786 48.10111 29161 ft 481 kts 210°
2026-04-18 09:24 -17.87087 48.05942 29096 ft 465 kts 224°
2026-04-18 09:24 -17.89361 48.03658 29050 ft 448 kts 224°
2026-04-18 09:24 -17.91580 48.01417 28556 ft 433 kts 224°
2026-04-18 09:25 -17.93705 47.99269 27732 ft 427 kts 224°
2026-04-18 09:25 -17.95855 47.97095 26710 ft 426 kts 224°
2026-04-18 09:25 -17.97962 47.94963 25876 ft 424 kts 224°
2026-04-18 09:25 -18.00085 47.92815 25261 ft 423 kts 224°
2026-04-18 09:26 -18.02186 47.90688 24755 ft 420 kts 224°
2026-04-18 09:26 -18.04282 47.88565 24255 ft 416 kts 224°
2026-04-18 09:26 -18.06369 47.86451 23744 ft 413 kts 224°
2026-04-18 09:26 -18.08412 47.84380 23247 ft 409 kts 224°
2026-04-18 09:27 -18.10474 47.82290 22743 ft 406 kts 224°
2026-04-18 09:27 -18.12506 47.80228 22248 ft 403 kts 224°
2026-04-18 09:27 -18.14491 47.78215 21756 ft 401 kts 224°
2026-04-18 09:27 -18.16491 47.76185 21247 ft 398 kts 223°
2026-04-18 09:28 -18.18493 47.74152 20735 ft 396 kts 223°
2026-04-18 09:28 -18.20472 47.72142 20230 ft 394 kts 223°
2026-04-18 09:28 -18.22422 47.70162 19721 ft 392 kts 223°
2026-04-18 09:28 -18.24385 47.68167 19209 ft 390 kts 223°
2026-04-18 09:29 -18.26328 47.66191 18705 ft 388 kts 223°
2026-04-18 09:29 -18.28265 47.64222 18197 ft 387 kts 223°
2026-04-18 09:29 -18.30187 47.62266 17688 ft 385 kts 223°
2026-04-18 09:29 -18.32096 47.60324 17200 ft 383 kts 223°
2026-04-18 09:30 -18.34021 47.58365 16634 ft 384 kts 223°
2026-04-18 09:30 -18.35951 47.56401 16040 ft 385 kts 224°
2026-04-18 09:30 -18.37852 47.54464 15504 ft 384 kts 224°
2026-04-18 09:30 -18.39777 47.52503 14983 ft 382 kts 224°
2026-04-18 09:31 -18.41675 47.50569 14428 ft 380 kts 224°
2026-04-18 09:31 -18.43556 47.48652 13979 ft 369 kts 224°
2026-04-18 09:31 -18.45385 47.46787 13418 ft 363 kts 225°
2026-04-18 09:31 -18.47177 47.44959 13032 ft 357 kts 225°
2026-04-18 09:32 -18.48950 47.43150 12579 ft 354 kts 225°
2026-04-18 09:32 -18.50672 47.41393 12230 ft 338 kts 225°
2026-04-18 09:32 -18.52325 47.39705 11988 ft 325 kts 225°
2026-04-18 09:32 -18.53940 47.38055 11302 ft 326 kts 225°
2026-04-18 09:33 -18.55580 47.36379 10557 ft 327 kts 225°
2026-04-18 09:33 -18.57195 47.34685 10153 ft 325 kts 227°
2026-04-18 09:33 -18.58936 47.33208 9773 ft 323 kts 208°
2026-04-18 09:33 -18.60994 47.32258 9347 ft 323 kts 207°
2026-04-18 09:34 -18.62856 47.30974 8908 ft 321 kts 213°
2026-04-18 09:34 -18.64747 47.29703 8632 ft 313 kts 219°
2026-04-18 09:34 -18.66338 47.28248 8599 ft 298 kts 225°
2026-04-18 09:34 -18.67660 47.26623 8575 ft 283 kts 233°
2026-04-18 09:35 -18.68842 47.24979 8329 ft 280 kts 234°
2026-04-18 09:35 -18.70100 47.23394 7932 ft 281 kts 220°
2026-04-18 09:35 -18.71778 47.22356 7606 ft 280 kts 202°
2026-04-18 09:35 -18.73655 47.21998 7236 ft 279 kts 175°
2026-04-18 09:36 -18.75493 47.22572 7055 ft 267 kts 150°
2026-04-18 09:36 -18.76821 47.23810 7029 ft 249 kts 120°
2026-04-18 09:36 -18.77350 47.25491 7033 ft 238 kts 89°
2026-04-18 09:36 -18.77092 47.27153 7044 ft 227 kts 77°
2026-04-18 09:37 -18.76910 47.28770 7044 ft 218 kts 89°
2026-04-18 09:37 -18.77014 47.30340 7040 ft 214 kts 96°
2026-04-18 09:37 -18.77242 47.31900 6763 ft 212 kts 98°
2026-04-18 09:37 -18.77486 47.33373 6506 ft 198 kts 98°
2026-04-18 09:38 -18.77710 47.34761 6276 ft 188 kts 98°
2026-04-18 09:38 -18.77913 47.36089 6043 ft 176 kts 98°
2026-04-18 09:38 -18.78100 47.37322 5819 ft 166 kts 97°
2026-04-18 09:38 -18.78277 47.38490 5631 ft 160 kts 97°
2026-04-18 09:39 -18.78452 47.39648 5418 ft 160 kts 98°
2026-04-18 09:39 -18.78637 47.40825 5172 ft 162 kts 97°
2026-04-18 09:39 -18.78805 47.41970 4927 ft 156 kts 97°
2026-04-18 09:39 -18.78973 47.43101 4749 ft 159 kts 97°
2026-04-18 09:40 -18.79153 47.44264 4587 ft 160 kts 97°
2026-04-18 09:40 -18.79323 47.45410 4425 ft 160 kts 97°
2026-04-18 09:40 -18.79500 47.46561 4235 ft 157 kts 97°
2026-04-18 09:40 -18.79652 47.47592 4177 ft 120 kts 99°
2026-04-18 09:41 -18.79754 47.48260 4170 ft 38 kts 98°
2026-04-18 09:41 -18.79773 47.48380 4168 ft 7 kts 107°
2026-04-18 09:41 -18.79801 47.48450 4168 ft 10 kts 127°
2026-04-18 09:41 -18.79789 47.48482 4167 ft 4 kts 352°
2026-04-18 09:42 -18.79771 47.48441 4167 ft 11 kts 280°
2026-04-18 09:42 -18.79755 47.48329 4169 ft 18 kts 279°
2026-04-18 09:42 -18.79741 47.48187 4171 ft 13 kts 268°
2026-04-18 09:42 -18.79762 47.48117 4173 ft 7 kts 206°
2026-04-18 09:43 -18.79822 47.48109 4176 ft 7 kts 186°
2026-04-18 09:43 -18.79872 47.48095 4177 ft 9 kts 204°
2026-04-18 09:43 -18.79897 47.48018 4178 ft 15 kts 280°
2026-04-18 09:43 -18.79891 47.47929 4178 ft 7 kts 226°
2026-04-18 09:44 -18.79931 47.47919 4179 ft 5 kts 187°
2026-04-18 09:44 -18.79986 47.47910 4180 ft 5 kts 189°
2026-04-18 09:44 -18.79991 47.47909 4180 ft 0 kts 189°